Tracking 19908 objects as of 18-Oct-2019
HD Live streaming from Space Station
objects crossing your sky now

COSMOS 1275 DEB

Track COSMOS 1275 DEB now!
10-day predictions


NORAD ID: 19853
Int'l Code: 1981-053MN
Perigee: 928.5 km
Apogee: 1,123.9 km
Inclination: 83.0 °
Period: 105.5 minutes
Semi major axis: 7397 km
RCS: 0.0046 m2 (small)
Launch date: June 4, 1981
Source: Commonwealth of Independent States (former USSR) (CIS)
Launch site: PLESETSK MISSILE AND SPACE COMPLEX (PKMTR)

Note: This is SATELLITE DEBRIS
aabbcc
Your satellite tracking list
Your tracking list is empty




NASA's NSSDC Master Catalog

Two Line Element Set (TLE):
1 19853U 81053MH  19290.29808716  .00000360  00000-0  40380-3 0  9992
2 19853  82.9887 229.4343 0132133  92.6657  61.9807 13.64588483523703
Source of the keplerian elements: AFSPC